This is the latest recevied weather packets stored in our database for station/object DB0DUS-10. If no packets are shown the sender has not sent any weather packets the latest 10 day(s).
| Time | Temp. | Humidity | Pressure | Rain* | Wind** | Luminosity | Snow |
|---|---|---|---|---|---|---|---|
| 1777316901 | 15.56° C | 38% | 1020.9 hPa | 0 mm | - | - | - |
| 1777316602 | 15.56° C | 37% | 1020.9 hPa | 0 mm | - | - | - |
| 1777315101 | 16.67° C | 34% | 1020.8 hPa | 0 mm | - | - | - |
| 1777313602 | 17.78° C | 33% | 1020.9 hPa | 0 mm | - | - | - |
| 1777313301 | 17.78° C | 32% | 1020.9 hPa | 0 mm | - | - | - |
| 1777312102 | 18.33° C | 29% | 1021 hPa | 0 mm | - | - | - |
| 1777311501 | 18.33° C | 28% | 1021 hPa | 0 mm | - | - | - |
| 1777310602 | 18.89° C | 28% | 1021.1 hPa | 0 mm | - | - | - |
| 1777309701 | 19.44° C | 27% | 1021.1 hPa | 0 mm | - | - | - |
| 1777309102 | 19.44° C | 26% | 1021.2 hPa | 0 mm | - | - | - |
| 1777307901 | 20° C | 25% | 1021.2 hPa | 0 mm | - | - | - |
| 1777307602 | 20° C | 25% | 1021.2 hPa | 0 mm | - | - | - |
| 1777306101 | 21.11° C | 21% | 1021.3 hPa | 0 mm | - | - | - |
| 1777304602 | 22.22° C | 21% | 1021.4 hPa | 0 mm | - | - | - |
| 1777304302 | 22.78° C | 20% | 1021.4 hPa | 0 mm | - | - | - |
| 1777303103 | 24.44° C | 19% | 1021.6 hPa | 0 mm | - | - | - |
| 1777302502 | 25° C | 20% | 1021.6 hPa | 0 mm | - | - | - |
| 1777301673 | 25° C | 21% | 1021.8 hPa | 0 mm | - | - | - |
| 1777301603 | 25° C | 21% | 1021.8 hPa | 0 mm | - | - | - |
| 1777300702 | 24.44° C | 20% | 1022 hPa | 0 mm | - | - | - |
| 1777300103 | 25° C | 19% | 1022.2 hPa | 0 mm | - | - | - |
| 1777298902 | 26.67° C | 17% | 1022.2 hPa | 0 mm | - | - | - |
| 1777298603 | 26.67° C | 16% | 1022.1 hPa | 0 mm | - | - | - |
| 1777297102 | 26.67° C | 16% | 1022.5 hPa | 0 mm | - | - | - |
| 1777295603 | 27.78° C | 16% | 1022.7 hPa | 0 mm | - | - | - |
* Rain latest hour (hover to see other rain measurements)
** Current wind speed in m/s (hover to see current wind gust speed)